Time,TemperatureF,DewpointF,PressureIn,WindDirection,WindDirectionDegrees,WindSpeedMPH,WindSpeedGustMPH,Humidity,HourlyPrecipIn,Conditions,Clouds,dailyrainin,SoftwareType,DateUTC
2013-04-08 00:03:00,49.6,34.1,27.17,West,281,0.3,2.9,55,0.00,,,0.00,WSDL version 420,2013-04-08 04:03:00,
2013-04-08 00:08:00,49.4,34.2,27.17,WNW,290,1.1,2.9,56,0.00,,,0.00,WSDL version 420,2013-04-08 04:08:00,
2013-04-08 00:13:00,49.2,34.0,27.17,WNW,293,0.0,2.5,55,0.00,,,0.00,WSDL version 420,2013-04-08 04:13:00,
2013-04-08 00:18:00,49.1,34.2,27.17,WNW,300,0.7,2.9,57,0.00,,,0.00,WSDL version 420,2013-04-08 04:18:00,
2013-04-08 00:23:00,48.9,34.2,27.17,West,273,0.9,2.9,57,0.00,,,0.00,WSDL version 420,2013-04-08 04:23:00,
2013-04-08 00:28:00,48.7,34.1,27.17,WNW,288,1.4,2.5,57,0.00,,,0.00,WSDL version 420,2013-04-08 04:28:00,
2013-04-08 00:33:00,48.6,34.0,27.17,WNW,293,0.7,2.5,57,0.00,,,0.00,WSDL version 420,2013-04-08 04:33:00,
2013-04-08 00:38:00,48.6,34.2,27.17,West,276,0.0,2.2,58,0.00,,,0.00,WSDL version 420,2013-04-08 04:38:00,
2013-04-08 00:43:00,48.4,34.3,27.17,West,270,0.1,2.2,58,0.00,,,0.00,WSDL version 420,2013-04-08 04:43:00,
2013-04-08 00:48:00,48.3,34.3,27.20,NW,304,1.1,2.0,58,0.00,,,0.00,WSDL version 420,2013-04-08 04:48:00,
2013-04-08 00:53:00,48.2,34.3,27.20,West,270,0.0,1.6,58,0.00,,,0.00,WSDL version 420,2013-04-08 04:53:00,
2013-04-08 00:58:00,48.0,34.4,27.20,West,270,0.0,2.0,59,0.00,,,0.00,WSDL version 420,2013-04-08 04:58:00,
2013-04-08 01:03:00,47.8,34.2,27.17,West,270,0.0,2.0,59,0.00,,,0.00,WSDL version 420,2013-04-08 05:03:00,
2013-04-08 01:08:00,47.6,34.3,27.17,West,270,0.0,1.3,60,0.00,,,0.00,WSDL version 420,2013-04-08 05:08:00,
2013-04-08 01:13:00,47.5,34.3,27.17,WNW,285,0.0,0.0,60,0.00,,,0.00,WSDL version 420,2013-04-08 05:13:00,
2013-04-08 01:18:00,47.3,34.2,27.17,West,270,0.0,2.0,60,0.00,,,0.00,WSDL version 420,2013-04-08 05:18:00,
2013-04-08 01:23:00,47.3,34.4,27.17,WNW,293,0.0,2.0,61,0.00,,,0.00,WSDL version 420,2013-04-08 05:23:00,
2013-04-08 01:28:00,47.2,34.5,27.17,WNW,293,0.0,1.6,61,0.00,,,0.00,WSDL version 420,2013-04-08 05:28:00,
2013-04-08 01:33:00,47.1,34.3,27.17,WNW,293,0.0,1.6,61,0.00,,,0.00,WSDL version 420,2013-04-08 05:33:00,
2013-04-08 01:38:00,46.9,34.4,27.17,West,281,0.0,1.3,62,0.00,,,0.00,WSDL version 420,2013-04-08 05:38:00,
2013-04-08 01:43:00,46.9,34.6,27.17,West,270,0.0,1.3,62,0.00,,,0.00,WSDL version 420,2013-04-08 05:43:00,
2013-04-08 01:48:00,46.8,34.4,27.17,WNW,293,0.0,0.0,62,0.00,,,0.00,WSDL version 420,2013-04-08 05:48:00,
2013-04-08 01:53:00,46.8,34.5,27.17,West,270,0.0,0.0,63,0.00,,,0.00,WSDL version 420,2013-04-08 05:53:00,
2013-04-08 01:58:00,46.8,34.8,27.17,WNW,293,0.9,2.5,63,0.00,,,0.00,WSDL version 420,2013-04-08 05:58:00,
2013-04-08 02:03:00,46.8,34.9,27.17,WNW,284,1.3,2.5,64,0.00,,,0.00,WSDL version 420,2013-04-08 06:03:00,
2013-04-08 02:08:00,46.8,35.0,27.17,WNW,293,0.1,2.2,64,0.00,,,0.00,WSDL version 420,2013-04-08 06:08:00,
2013-04-08 02:13:00,46.7,35.1,27.17,WNW,283,1.3,2.0,64,0.00,,,0.00,WSDL version 420,2013-04-08 06:13:00,
2013-04-08 02:18:00,46.8,35.3,27.17,West,278,0.0,2.5,64,0.00,,,0.00,WSDL version 420,2013-04-08 06:18:00,
2013-04-08 02:23:00,46.6,35.2,27.17,WNW,293,0.4,2.5,64,0.00,,,0.00,WSDL version 420,2013-04-08 06:23:00,
2013-04-08 02:28:00,46.6,35.1,27.17,West,281,0.0,1.6,64,0.00,,,0.00,WSDL version 420,2013-04-08 06:28:00,
2013-04-08 02:33:00,46.4,35.0,27.17,WNW,293,0.0,0.0,65,0.00,,,0.00,WSDL version 420,2013-04-08 06:33:00,
2013-04-08 02:38:00,46.4,35.3,27.17,WNW,293,0.0,0.0,65,0.00,,,0.00,WSDL version 420,2013-04-08 06:38:00,
2013-04-08 02:45:00,46.2,35.1,27.17,WNW,293,0.0,0.0,65,0.00,,,0.00,WSDL version 420,2013-04-08 06:45:00,
2013-04-08 02:50:00,46.2,35.4,27.14,West,270,0.0,0.0,66,0.00,,,0.00,WSDL version 420,2013-04-08 06:50:00,
2013-04-08 02:55:00,46.1,35.4,27.14,West,270,0.0,0.0,66,0.00,,,0.00,WSDL version 420,2013-04-08 06:55:00,
2013-04-08 03:00:00,46.0,35.5,27.14,WNW,293,0.0,0.0,67,0.00,,,0.00,WSDL version 420,2013-04-08 07:00:00,
2013-04-08 03:05:00,45.9,35.5,27.14,WNW,293,0.0,0.0,67,0.00,,,0.00,WSDL version 420,2013-04-08 07:05:00,
2013-04-08 03:15:00,46.0,36.1,27.14,West,270,0.6,1.6,67,0.00,,,0.00,WSDL version 420,2013-04-08 07:15:00,
2013-04-08 03:20:00,45.8,35.5,27.14,WNW,293,0.0,1.6,67,0.00,,,0.00,WSDL version 420,2013-04-08 07:20:00,
2013-04-08 03:25:00,45.7,35.7,27.14,WNW,288,0.5,1.6,68,0.00,,,0.00,WSDL version 420,2013-04-08 07:25:00,
2013-04-08 03:30:00,45.7,35.7,27.14,West,270,0.4,1.6,68,0.00,,,0.00,WSDL version 420,2013-04-08 07:30:00,
2013-04-08 03:35:00,45.5,35.5,27.14,West,270,0.4,1.6,68,0.00,,,0.00,WSDL version 420,2013-04-08 07:35:00,
2013-04-08 03:40:00,45.4,35.5,27.14,West,280,1.1,2.2,68,0.00,,,0.00,WSDL version 420,2013-04-08 07:40:00,
2013-04-08 03:50:00,45.4,35.4,27.14,WNW,293,0.0,0.0,68,0.00,,,0.00,WSDL version 420,2013-04-08 07:50:00,
2013-04-08 03:55:00,45.3,35.7,27.14,WNW,293,0.0,0.0,69,0.00,,,0.00,WSDL version 420,2013-04-08 07:55:00,
2013-04-08 04:00:00,45.3,35.8,27.14,WNW,293,0.0,0.0,69,0.00,,,0.00,WSDL version 420,2013-04-08 08:00:00,
2013-04-08 04:05:00,45.3,35.8,27.14,WNW,293,0.0,0.0,69,0.00,,,0.00,WSDL version 420,2013-04-08 08:05:00,
2013-04-08 04:15:00,45.3,35.8,27.14,WNW,293,0.2,2.0,70,0.00,,,0.00,WSDL version 420,2013-04-08 08:15:00,
2013-04-08 04:20:00,45.4,36.2,27.14,West,259,0.0,2.0,70,0.00,,,0.00,WSDL version 420,2013-04-08 08:20:00,
2013-04-08 04:25:00,45.4,36.2,27.14,West,270,0.0,1.3,70,0.00,,,0.00,WSDL version 420,2013-04-08 08:25:00,
2013-04-08 04:32:00,45.3,36.1,27.14,West,270,0.0,0.0,70,0.00,,,0.00,WSDL version 420,2013-04-08 08:32:00,
2013-04-08 04:37:00,45.3,36.1,27.14,WNW,293,0.0,0.0,70,0.00,,,0.00,WSDL version 420,2013-04-08 08:37:00,
2013-04-08 04:47:00,45.3,36.1,27.17,West,270,0.0,2.2,70,0.00,,,0.00,WSDL version 420,2013-04-08 08:47:00,
2013-04-08 04:52:00,45.3,36.3,27.17,West,260,0.6,2.2,71,0.00,,,0.00,WSDL version 420,2013-04-08 08:52:00,
2013-04-08 04:57:00,45.2,36.3,27.17,West,276,0.7,2.2,71,0.00,,,0.00,WSDL version 420,2013-04-08 08:57:00,
2013-04-08 05:07:00,45.0,36.2,27.14,West,270,0.0,0.0,71,0.00,,,0.00,WSDL version 420,2013-04-08 09:07:00,
2013-04-08 05:17:00,45.1,36.7,27.14,SSW,203,0.0,1.3,72,0.00,,,0.00,WSDL version 420,2013-04-08 09:17:00,
2013-04-08 05:22:00,45.0,36.5,27.14,WNW,293,0.0,0.0,72,0.00,,,0.00,WSDL version 420,2013-04-08 09:22:00,
2013-04-08 05:27:00,44.8,36.2,27.14,WNW,298,0.0,0.9,72,0.00,,,0.00,WSDL version 420,2013-04-08 09:27:00,
2013-04-08 05:32:00,44.8,36.1,27.14,West,270,0.0,0.9,71,0.00,,,0.00,WSDL version 420,2013-04-08 09:32:00,
2013-04-08 05:42:00,44.7,36.2,27.14,WSW,248,0.0,2.2,72,0.00,,,0.00,WSDL version 420,2013-04-08 09:42:00,
2013-04-08 05:47:00,44.6,36.1,27.14,West,270,0.0,0.0,72,0.00,,,0.00,WSDL version 420,2013-04-08 09:47:00,
2013-04-08 05:52:00,44.4,35.9,27.14,West,270,0.0,0.0,72,0.00,,,0.00,WSDL version 420,2013-04-08 09:52:00,
2013-04-08 05:57:00,44.2,35.8,27.14,West,270,0.0,0.0,72,0.00,,,0.00,WSDL version 420,2013-04-08 09:57:00,
2013-04-08 06:02:00,44.2,36.1,27.14,WSW,248,0.0,0.0,73,0.00,,,0.00,WSDL version 420,2013-04-08 10:02:00,
2013-04-08 06:07:00,44.3,36.5,27.14,SW,217,0.0,0.9,74,0.00,,,0.00,WSDL version 420,2013-04-08 10:07:00,
2013-04-08 06:17:00,44.2,36.6,27.14,SW,225,0.0,0.0,75,0.00,,,0.00,WSDL version 420,2013-04-08 10:17:00,
2013-04-08 06:22:00,44.2,36.5,27.14,SW,225,0.0,0.0,74,0.00,,,0.00,WSDL version 420,2013-04-08 10:22:00,
2013-04-08 06:27:00,44.2,36.4,27.14,West,270,0.0,0.0,74,0.00,,,0.00,WSDL version 420,2013-04-08 10:27:00,
2013-04-08 06:37:00,44.2,36.4,27.17,West,278,0.0,0.0,74,0.00,,,0.00,WSDL version 420,2013-04-08 10:37:00,
2013-04-08 06:42:00,44.1,36.3,27.17,West,270,0.0,0.0,74,0.00,,,0.00,WSDL version 420,2013-04-08 10:42:00,
2013-04-08 06:47:00,44.0,36.2,27.17,West,270,0.0,0.0,74,0.00,,,0.00,WSDL version 420,2013-04-08 10:47:00,
2013-04-08 06:52:00,43.9,36.1,27.17,WNW,293,0.0,0.0,74,0.00,,,0.00,WSDL version 420,2013-04-08 10:52:00,
2013-04-08 06:57:00,43.9,36.3,27.17,WNW,284,0.0,0.0,75,0.00,,,0.00,WSDL version 420,2013-04-08 10:57:00,
2013-04-08 07:02:00,43.9,36.5,27.17,West,270,0.0,0.0,75,0.00,,,0.00,WSDL version 420,2013-04-08 11:02:00,
2013-04-08 07:07:00,43.9,36.5,27.17,WNW,293,0.0,0.0,75,0.00,,,0.00,WSDL version 420,2013-04-08 11:07:00,
2013-04-08 07:12:00,43.8,36.4,27.17,West,263,0.0,1.1,75,0.00,,,0.00,WSDL version 420,2013-04-08 11:12:00,
2013-04-08 07:17:00,43.9,36.5,27.17,WNW,293,0.0,1.1,75,0.00,,,0.00,WSDL version 420,2013-04-08 11:17:00,
2013-04-08 07:22:00,43.9,36.5,27.17,WNW,283,0.0,0.0,75,0.00,,,0.00,WSDL version 420,2013-04-08 11:22:00,
2013-04-08 07:32:00,44.0,36.8,27.17,WSW,248,0.6,2.0,76,0.00,,,0.00,WSDL version 420,2013-04-08 11:32:00,
2013-04-08 07:37:00,44.1,36.8,27.17,WNW,293,0.0,1.6,76,0.00,,,0.00,WSDL version 420,2013-04-08 11:37:00,
2013-04-08 07:42:00,44.2,36.9,27.17,WNW,284,0.0,2.2,75,0.00,,,0.00,WSDL version 420,2013-04-08 11:42:00,
2013-04-08 07:47:00,44.5,37.2,27.17,West,273,0.6,2.2,75,0.00,,,0.00,WSDL version 420,2013-04-08 11:47:00,
2013-04-08 07:52:00,45.1,37.6,27.17,West,270,0.0,2.0,75,0.00,,,0.00,WSDL version 420,2013-04-08 11:52:00,
2013-04-08 08:02:00,46.3,39.0,27.17,West,270,0.0,0.0,75,0.00,,,0.00,WSDL version 420,2013-04-08 12:02:00,
2013-04-08 08:12:00,48.2,40.6,27.17,WSW,256,0.0,0.0,75,0.00,,,0.00,WSDL version 420,2013-04-08 12:12:00,
2013-04-08 08:17:00,49.2,41.4,27.17,West,267,0.0,0.0,74,0.00,,,0.00,WSDL version 420,2013-04-08 12:17:00,
2013-04-08 08:22:00,50.5,42.3,27.17,West,273,0.6,2.5,73,0.00,,,0.00,WSDL version 420,2013-04-08 12:22:00,
2013-04-08 08:27:00,51.1,42.3,27.17,NW,326,0.4,2.5,71,0.00,,,0.00,WSDL version 420,2013-04-08 12:27:00,
2013-04-08 08:32:00,51.4,42.2,27.17,WNW,303,1.4,3.4,70,0.00,,,0.00,WSDL version 420,2013-04-08 12:32:00,
2013-04-08 08:42:00,53.1,43.5,27.17,West,278,0.4,2.7,68,0.00,,,0.00,WSDL version 420,2013-04-08 12:42:00,
2013-04-08 08:47:00,55.4,45.1,27.17,NW,309,0.6,2.7,67,0.00,,,0.00,WSDL version 420,2013-04-08 12:47:00,
2013-04-08 08:52:00,57.9,46.5,27.17,NE,48,0.4,2.2,64,0.00,,,0.00,WSDL version 420,2013-04-08 12:52:00,
2013-04-08 08:57:00,59.4,45.2,27.17,WSW,248,3.9,7.8,57,0.00,,,0.00,WSDL version 420,2013-04-08 12:57:00,
2013-04-08 09:02:00,60.3,44.8,27.20,WSW,248,2.3,7.8,55,0.00,,,0.00,WSDL version 420,2013-04-08 13:02:00,
2013-04-08 09:07:00,61.1,44.3,27.20,West,265,2.1,6.0,53,0.00,,,0.00,WSDL version 420,2013-04-08 13:07:00,
2013-04-08 09:12:00,62.1,44.0,27.20,West,275,3.2,6.0,51,0.00,,,0.00,WSDL version 420,2013-04-08 13:12:00,
2013-04-08 09:17:00,62.8,43.9,27.20,West,264,2.7,5.8,50,0.00,,,0.00,WSDL version 420,2013-04-08 13:17:00,
2013-04-08 09:22:00,64.1,44.4,27.20,West,280,3.8,5.8,47,0.00,,,0.00,WSDL version 420,2013-04-08 13:22:00,
2013-04-08 09:27:00,64.2,43.3,27.20,NW,312,3.1,6.5,46,0.00,,,0.00,WSDL version 420,2013-04-08 13:27:00,
2013-04-08 09:32:00,64.5,43.4,27.20,West,268,3.1,7.8,46,0.00,,,0.00,WSDL version 420,2013-04-08 13:32:00,
2013-04-08 09:37:00,65.3,43.7,27.20,SW,233,2.7,7.8,45,0.00,,,0.00,WSDL version 420,2013-04-08 13:37:00,
2013-04-08 09:42:00,65.3,43.5,27.20,WSW,248,2.3,6.7,45,0.00,,,0.00,WSDL version 420,2013-04-08 13:42:00,
2013-04-08 09:52:00,65.1,43.0,27.17,West,262,4.6,8.5,45,0.00,,,0.00,WSDL version 420,2013-04-08 13:52:00,
2013-04-08 09:57:00,64.9,42.9,27.17,SW,223,4.3,8.5,44,0.00,,,0.00,WSDL version 420,2013-04-08 13:57:00,
2013-04-08 10:02:00,64.8,43.0,27.20,WSW,245,4.4,7.6,45,0.00,,,0.00,WSDL version 420,2013-04-08 14:02:00,
2013-04-08 10:07:00,65.2,43.4,27.20,West,267,5.1,7.6,45,0.00,,,0.00,WSDL version 420,2013-04-08 14:07:00,
2013-04-08 10:12:00,65.1,43.4,27.20,WSW,242,4.8,11.2,45,0.00,,,0.00,WSDL version 420,2013-04-08 14:12:00,
2013-04-08 10:17:00,65.3,43.5,27.17,NW,309,5.7,11.2,45,0.00,,,0.00,WSDL version 420,2013-04-08 14:17:00,
2013-04-08 10:22:00,65.8,44.3,27.17,West,262,3.1,10.5,46,0.00,,,0.00,WSDL version 420,2013-04-08 14:22:00,
2013-04-08 10:27:00,65.9,44.2,27.17,West,267,3.1,5.4,45,0.00,,,0.00,WSDL version 420,2013-04-08 14:27:00,
2013-04-08 10:32:00,66.4,44.4,27.17,WSW,248,3.2,6.3,45,0.00,,,0.00,WSDL version 420,2013-04-08 14:32:00,
2013-04-08 10:42:00,66.8,44.2,27.17,WSW,243,4.8,8.5,44,0.00,,,0.00,WSDL version 420,2013-04-08 14:42:00,
2013-04-08 10:47:00,67.2,44.6,27.20,SW,233,4.6,8.7,44,0.00,,,0.00,WSDL version 420,2013-04-08 14:47:00,
2013-04-08 10:52:00,67.5,44.4,27.20,WSW,243,4.2,8.7,43,0.00,,,0.00,WSDL version 420,2013-04-08 14:52:00,
2013-04-08 10:57:00,67.6,44.3,27.20,WSW,245,4.6,8.5,43,0.00,,,0.00,WSDL version 420,2013-04-08 14:57:00,
2013-04-08 11:02:00,67.6,44.3,27.17,WNW,283,3.3,8.5,43,0.00,,,0.00,WSDL version 420,2013-04-08 15:02:00,
2013-04-08 11:07:00,68.1,44.1,27.17,West,262,5.5,10.3,42,0.00,,,0.00,WSDL version 420,2013-04-08 15:07:00,
2013-04-08 11:12:00,69.4,44.7,27.17,NNW,344,3.9,10.3,40,0.00,,,0.00,WSDL version 420,2013-04-08 15:12:00,
2013-04-08 11:17:00,69.2,43.8,27.20,WSW,258,4.9,9.6,39,0.00,,,0.00,WSDL version 420,2013-04-08 15:17:00,
2013-04-08 11:22:00,69.9,43.4,27.20,WNW,295,2.7,8.5,38,0.00,,,0.00,WSDL version 420,2013-04-08 15:22:00,
2013-04-08 11:27:00,69.1,42.3,27.20,West,280,4.8,9.4,37,0.00,,,0.00,WSDL version 420,2013-04-08 15:27:00,
2013-04-08 11:32:00,68.9,42.6,27.17,SSW,203,2.4,9.8,39,0.00,,,0.00,WSDL version 420,2013-04-08 15:32:00,
2013-04-08 11:37:00,70.5,43.5,27.17,WSW,242,6.6,9.8,37,0.00,,,0.00,WSDL version 420,2013-04-08 15:37:00,
2013-04-08 11:47:00,70.9,42.9,27.20,WNW,298,3.7,7.8,36,0.00,,,0.00,WSDL version 420,2013-04-08 15:47:00,
2013-04-08 11:54:00,69.1,42.0,27.20,WSW,248,3.8,6.5,38,0.00,,,0.00,WSDL version 420,2013-04-08 15:54:00,
2013-04-08 12:04:00,68.1,41.9,27.17,ESE,122,3.2,5.8,38,0.00,,,0.00,WSDL version 420,2013-04-08 16:04:00,
2013-04-08 12:14:00,68.5,41.9,27.17,WSW,248,4.7,9.2,38,0.00,,,0.00,WSDL version 420,2013-04-08 16:14:00,
2013-04-08 12:19:00,70.8,43.1,27.17,West,270,4.0,10.3,36,0.00,,,0.00,WSDL version 420,2013-04-08 16:19:00,
2013-04-08 12:24:00,69.9,41.4,27.17,SE,146,2.2,10.3,36,0.00,,,0.00,WSDL version 420,2013-04-08 16:24:00,
2013-04-08 12:29:00,69.0,41.4,27.17,North,11,1.6,9.6,36,0.00,,,0.00,WSDL version 420,2013-04-08 16:29:00,
2013-04-08 12:34:00,68.6,41.3,27.17,WSW,245,4.3,8.7,37,0.00,,,0.00,WSDL version 420,2013-04-08 16:34:00,
2013-04-08 12:43:00,67.6,41.1,27.17,NE,37,2.4,7.2,38,0.00,,,0.00,WSDL version 420,2013-04-08 16:43:00,
2013-04-08 12:48:00,67.6,41.6,27.17,WSW,253,2.3,7.2,39,0.00,,,0.00,WSDL version 420,2013-04-08 16:48:00,
2013-04-08 12:53:00,68.5,41.6,27.17,NW,305,2.9,6.0,37,0.00,,,0.00,WSDL version 420,2013-04-08 16:53:00,
2013-04-08 12:58:00,69.9,42.7,27.17,West,263,3.7,8.5,37,0.00,,,0.00,WSDL version 420,2013-04-08 16:58:00,
2013-04-08 13:03:00,72.1,43.0,27.17,SW,222,3.3,8.5,34,0.00,,,0.00,WSDL version 420,2013-04-08 17:03:00,
2013-04-08 13:08:00,73.1,42.7,27.17,WSW,253,3.6,7.8,33,0.00,,,0.00,WSDL version 420,2013-04-08 17:08:00,
2013-04-08 13:13:00,73.9,42.4,27.17,SW,225,5.4,8.7,32,0.00,,,0.00,WSDL version 420,2013-04-08 17:13:00,
2013-04-08 13:18:00,72.8,41.3,27.17,North,11,4.8,10.3,32,0.00,,,0.00,WSDL version 420,2013-04-08 17:18:00,
2013-04-08 13:23:00,73.0,41.5,27.17,WSW,258,3.2,10.3,32,0.00,,,0.00,WSDL version 420,2013-04-08 17:23:00,
2013-04-08 13:28:00,73.7,41.5,27.17,WNW,286,3.9,12.5,32,0.00,,,0.00,WSDL version 420,2013-04-08 17:28:00,
2013-04-08 13:33:00,72.9,41.2,27.17,WNW,293,3.5,12.5,32,0.00,,,0.00,WSDL version 420,2013-04-08 17:33:00,
2013-04-08 13:38:00,71.9,40.6,27.17,NNE,30,3.0,6.5,33,0.00,,,0.00,WSDL version 420,2013-04-08 17:38:00,
2013-04-08 13:43:00,73.2,42.1,27.17,WSW,256,3.5,8.7,32,0.00,,,0.00,WSDL version 420,2013-04-08 17:43:00,
2013-04-08 13:48:00,73.4,41.8,27.17,WNW,283,4.9,9.2,32,0.00,,,0.00,WSDL version 420,2013-04-08 17:48:00,
2013-04-08 13:53:00,72.1,41.3,27.17,West,281,3.1,9.2,34,0.00,,,0.00,WSDL version 420,2013-04-08 17:53:00,
2013-04-08 13:58:00,71.7,41.9,27.17,West,281,4.9,10.7,34,0.00,,,0.00,WSDL version 420,2013-04-08 17:58:00,
2013-04-08 14:03:00,71.1,42.1,27.17,WNW,290,7.0,12.8,35,0.00,,,0.00,WSDL version 420,2013-04-08 18:03:00,
2013-04-08 14:08:00,70.3,40.7,27.17,North,10,4.5,12.8,34,0.00,,,0.00,WSDL version 420,2013-04-08 18:08:00,
2013-04-08 14:13:00,70.6,41.1,27.17,WNW,290,5.1,10.7,34,0.00,,,0.00,WSDL version 420,2013-04-08 18:13:00,
2013-04-08 14:18:00,71.1,41.6,27.17,SSW,194,4.0,10.1,34,0.00,,,0.00,WSDL version 420,2013-04-08 18:18:00,
2013-04-08 14:23:00,72.5,42.3,27.17,NW,320,3.8,11.9,33,0.00,,,0.00,WSDL version 420,2013-04-08 18:23:00,
2013-04-08 14:28:00,73.1,42.3,27.17,SSW,194,3.5,11.9,33,0.00,,,0.00,WSDL version 420,2013-04-08 18:28:00,
2013-04-08 14:33:00,72.6,41.5,27.17,NNW,330,6.2,8.7,32,0.00,,,0.00,WSDL version 420,2013-04-08 18:33:00,
2013-04-08 14:38:00,73.4,42.2,27.17,NE,53,2.9,12.5,32,0.00,,,0.00,WSDL version 420,2013-04-08 18:38:00,
2013-04-08 14:43:00,73.5,42.0,27.17,WNW,300,6.2,12.5,32,0.00,,,0.00,WSDL version 420,2013-04-08 18:43:00,
2013-04-08 14:48:00,72.1,40.7,27.17,WNW,288,3.2,10.5,32,0.00,,,0.00,WSDL version 420,2013-04-08 18:48:00,
2013-04-08 14:53:00,71.4,40.9,27.17,NW,304,5.3,10.7,33,0.00,,,0.00,WSDL version 420,2013-04-08 18:53:00,
2013-04-08 14:58:00,71.1,40.6,27.17,WSW,243,3.5,10.7,33,0.00,,,0.00,WSDL version 420,2013-04-08 18:58:00,
2013-04-08 15:03:00,71.0,40.5,27.14,ENE,68,4.3,13.0,33,0.00,,,0.00,WSDL version 420,2013-04-08 19:03:00,
2013-04-08 15:08:00,71.4,41.1,27.14,SW,230,3.8,13.0,34,0.00,,,0.00,WSDL version 420,2013-04-08 19:08:00,
2013-04-08 15:13:00,71.0,40.7,27.14,NW,326,5.0,10.7,33,0.00,,,0.00,WSDL version 420,2013-04-08 19:13:00,
2013-04-08 15:18:00,70.7,40.3,27.14,West,273,5.9,13.2,33,0.00,,,0.00,WSDL version 420,2013-04-08 19:18:00,
2013-04-08 15:23:00,71.7,41.7,27.14,West,263,2.6,13.2,34,0.00,,,0.00,WSDL version 420,2013-04-08 19:23:00,
2013-04-08 15:28:00,73.5,42.8,27.14,WSW,256,3.7,9.6,33,0.00,,,0.00,WSDL version 420,2013-04-08 19:28:00,
2013-04-08 15:33:00,75.0,43.2,27.14,North,360,2.8,9.6,32,0.00,,,0.00,WSDL version 420,2013-04-08 19:33:00,
2013-04-08 15:38:00,74.9,42.9,27.14,WSW,242,2.9,7.2,31,0.00,,,0.00,WSDL version 420,2013-04-08 19:38:00,
2013-04-08 15:43:00,74.8,42.2,27.14,WSW,255,6.6,8.9,31,0.00,,,0.00,WSDL version 420,2013-04-08 19:43:00,
2013-04-08 15:48:00,75.7,42.5,27.14,NW,321,5.8,12.5,31,0.00,,,0.00,WSDL version 420,2013-04-08 19:48:00,
2013-04-08 15:53:00,75.3,42.5,27.14,East,100,7.8,13.2,31,0.00,,,0.00,WSDL version 420,2013-04-08 19:53:00,
2013-04-08 15:58:00,73.9,41.9,27.14,WSW,238,5.0,13.2,32,0.00,,,0.00,WSDL version 420,2013-04-08 19:58:00,
2013-04-08 16:03:00,73.5,41.5,27.14,SSE,149,3.5,13.0,31,0.00,,,0.00,WSDL version 420,2013-04-08 20:03:00,
2013-04-08 16:08:00,74.5,42.6,27.14,NNE,25,4.3,9.8,32,0.00,,,0.00,WSDL version 420,2013-04-08 20:08:00,
2013-04-08 16:13:00,74.4,41.9,27.14,WNW,290,4.9,9.6,32,0.00,,,0.00,WSDL version 420,2013-04-08 20:13:00,
2013-04-08 16:18:00,73.9,42.1,27.14,West,280,6.4,12.3,32,0.00,,,0.00,WSDL version 420,2013-04-08 20:18:00,
2013-04-08 16:23:00,73.8,42.0,27.14,West,273,5.5,12.3,32,0.00,,,0.00,WSDL version 420,2013-04-08 20:23:00,
2013-04-08 16:28:00,74.6,42.6,27.14,WNW,283,3.2,10.7,31,0.00,,,0.00,WSDL version 420,2013-04-08 20:28:00,
2013-04-08 16:33:00,75.0,42.5,27.14,WNW,283,4.9,7.8,31,0.00,,,0.00,WSDL version 420,2013-04-08 20:33:00,
2013-04-08 16:38:00,74.3,41.8,27.14,West,273,5.8,12.1,31,0.00,,,0.00,WSDL version 420,2013-04-08 20:38:00,
2013-04-08 16:43:00,73.9,41.9,27.14,NE,45,5.1,12.1,31,0.00,,,0.00,WSDL version 420,2013-04-08 20:43:00,
2013-04-08 16:48:00,73.3,41.5,27.14,WSW,248,3.4,10.3,32,0.00,,,0.00,WSDL version 420,2013-04-08 20:48:00,
2013-04-08 16:53:00,73.3,41.6,27.14,WNW,295,3.6,10.3,32,0.00,,,0.00,WSDL version 420,2013-04-08 20:53:00,
2013-04-08 16:58:00,73.6,41.8,27.14,NW,304,3.0,7.8,32,0.00,,,0.00,WSDL version 420,2013-04-08 20:58:00,
2013-04-08 17:03:00,73.0,41.5,27.14,WNW,288,6.5,10.5,32,0.00,,,0.00,WSDL version 420,2013-04-08 21:03:00,
2013-04-08 17:08:00,72.7,41.2,27.14,WNW,284,3.7,10.5,32,0.00,,,0.00,WSDL version 420,2013-04-08 21:08:00,
2013-04-08 17:13:00,72.3,40.8,27.14,West,281,3.2,8.1,32,0.00,,,0.00,WSDL version 420,2013-04-08 21:13:00,
2013-04-08 17:18:00,72.5,41.5,27.14,NW,318,4.1,6.5,33,0.00,,,0.00,WSDL version 420,2013-04-08 21:18:00,
2013-04-08 17:23:00,71.7,40.7,27.14,WNW,295,6.3,13.2,33,0.00,,,0.00,WSDL version 420,2013-04-08 21:23:00,
2013-04-08 17:28:00,71.2,40.8,27.14,West,280,2.7,13.2,34,0.00,,,0.00,WSDL version 420,2013-04-08 21:28:00,
2013-04-08 17:33:00,71.1,40.8,27.14,SW,236,2.7,8.1,34,0.00,,,0.00,WSDL version 420,2013-04-08 21:33:00,
2013-04-08 17:40:00,70.6,40.7,27.14,WSW,245,6.8,13.0,34,0.00,,,0.00,WSDL version 420,2013-04-08 21:40:00,
2013-04-08 17:49:00,70.4,40.7,27.14,West,276,5.1,9.2,34,0.00,,,0.00,WSDL version 420,2013-04-08 21:49:00,
2013-04-08 17:54:00,70.4,40.7,27.14,NNW,328,5.0,9.8,34,0.00,,,0.00,WSDL version 420,2013-04-08 21:54:00,
2013-04-08 17:59:00,70.1,40.8,27.14,WNW,298,2.9,9.8,35,0.00,,,0.00,WSDL version 420,2013-04-08 21:59:00,
2013-04-08 18:04:00,69.8,40.8,27.14,West,260,4.1,7.8,35,0.00,,,0.00,WSDL version 420,2013-04-08 22:04:00,
2013-04-08 18:10:00,69.4,40.6,27.14,WNW,285,5.4,10.5,35,0.00,,,0.00,WSDL version 420,2013-04-08 22:10:00,
2013-04-08 18:19:00,68.8,40.2,27.14,NW,315,4.8,8.7,35,0.00,,,0.00,WSDL version 420,2013-04-08 22:19:00,
2013-04-08 18:30:00,68.2,40.2,27.14,SSW,205,3.3,10.3,36,0.00,,,0.00,WSDL version 420,2013-04-08 22:30:00,
2013-04-08 18:39:00,67.9,40.3,27.14,SW,222,3.6,8.1,37,0.00,,,0.00,WSDL version 420,2013-04-08 22:39:00,
2013-04-08 18:44:00,67.7,40.5,27.14,WNW,298,4.3,8.1,37,0.00,,,0.00,WSDL version 420,2013-04-08 22:44:00,
2013-04-08 18:51:00,67.4,40.4,27.17,WSW,257,2.5,8.7,37,0.00,,,0.00,WSDL version 420,2013-04-08 22:51:00,
2013-04-08 18:56:00,67.1,40.6,27.17,West,264,2.1,7.4,38,0.00,,,0.00,WSDL version 420,2013-04-08 22:56:00,
2013-04-08 19:01:00,66.8,40.9,27.17,WSW,256,5.0,7.4,39,0.00,,,0.00,WSDL version 420,2013-04-08 23:01:00,
2013-04-08 19:06:00,66.5,40.4,27.14,WNW,293,2.4,7.4,38,0.00,,,0.00,WSDL version 420,2013-04-08 23:06:00,
2013-04-08 19:11:00,66.3,40.8,27.14,WNW,301,6.5,10.3,40,0.00,,,0.00,WSDL version 420,2013-04-08 23:11:00,
2013-04-08 19:16:00,66.0,41.3,27.14,NW,318,2.3,10.3,41,0.00,,,0.00,WSDL version 420,2013-04-08 23:16:00,
2013-04-08 19:21:00,65.7,41.4,27.14,WNW,303,3.2,8.7,41,0.00,,,0.00,WSDL version 420,2013-04-08 23:21:00,
2013-04-08 19:31:00,65.3,41.6,27.14,West,260,3.8,6.5,42,0.00,,,0.00,WSDL version 420,2013-04-08 23:31:00,
2013-04-08 19:36:00,65.0,41.6,27.14,West,268,4.0,7.4,42,0.00,,,0.00,WSDL version 420,2013-04-08 23:36:00,
2013-04-08 19:41:00,64.9,41.9,27.14,NNE,20,3.8,7.4,43,0.00,,,0.00,WSDL version 420,2013-04-08 23:41:00,
2013-04-08 19:46:00,64.5,41.5,27.14,WSW,256,2.7,6.5,43,0.00,,,0.00,WSDL version 420,2013-04-08 23:46:00,
2013-04-08 19:51:00,64.2,41.4,27.14,WNW,290,2.6,6.5,43,0.00,,,0.00,WSDL version 420,2013-04-08 23:51:00,
2013-04-08 20:01:00,64.1,41.8,27.14,WNW,295,3.7,7.4,44,0.00,,,0.00,WSDL version 420,2013-04-09 00:01:00,
2013-04-08 20:06:00,63.9,41.6,27.17,WNW,300,1.7,6.9,44,0.00,,,0.00,WSDL version 420,2013-04-09 00:06:00,
2013-04-08 20:11:00,63.6,41.3,27.17,WSW,253,2.3,7.4,44,0.00,,,0.00,WSDL version 420,2013-04-09 00:11:00,
2013-04-08 20:16:00,63.0,40.8,27.17,NW,312,0.6,7.4,44,0.00,,,0.00,WSDL version 420,2013-04-09 00:16:00,
2013-04-08 20:26:00,62.2,40.8,27.17,West,278,1.9,5.6,45,0.00,,,0.00,WSDL version 420,2013-04-09 00:26:00,
2013-04-08 20:31:00,61.8,40.7,27.17,NW,308,0.7,4.5,46,0.00,,,0.00,WSDL version 420,2013-04-09 00:31:00,
2013-04-08 20:41:00,61.5,41.0,27.17,WSW,250,2.5,4.7,47,0.00,,,0.00,WSDL version 420,2013-04-09 00:41:00,
2013-04-08 20:46:00,61.6,41.3,27.17,WNW,301,3.7,5.6,47,0.00,,,0.00,WSDL version 420,2013-04-09 00:46:00,
2013-04-08 20:51:00,61.9,41.8,27.17,West,268,4.6,7.4,48,0.00,,,0.00,WSDL version 420,2013-04-09 00:51:00,
2013-04-08 20:56:00,61.8,41.6,27.17,NW,305,1.8,7.4,47,0.00,,,0.00,WSDL version 420,2013-04-09 00:56:00,
2013-04-08 21:01:00,61.5,41.4,27.17,WNW,287,2.3,4.9,48,0.00,,,0.00,WSDL version 420,2013-04-09 01:01:00,
2013-04-08 21:06:00,61.3,41.5,27.17,WNW,303,2.2,4.7,48,0.00,,,0.00,WSDL version 420,2013-04-09 01:06:00,
2013-04-08 21:18:00,61.1,41.6,27.17,WNW,290,2.5,5.6,49,0.00,,,0.00,WSDL version 420,2013-04-09 01:18:00,
2013-04-08 21:23:00,61.3,41.8,27.17,WNW,301,3.8,6.5,49,0.00,,,0.00,WSDL version 420,2013-04-09 01:23:00,
2013-04-08 21:28:00,61.4,42.0,27.17,WNW,295,3.2,6.5,49,0.00,,,0.00,WSDL version 420,2013-04-09 01:28:00,
2013-04-08 21:33:00,61.2,42.0,27.17,West,267,3.6,6.3,49,0.00,,,0.00,WSDL version 420,2013-04-09 01:33:00,
2013-04-08 21:43:00,61.3,42.0,27.17,WNW,290,2.9,6.5,49,0.00,,,0.00,WSDL version 420,2013-04-09 01:43:00,
2013-04-08 21:48:00,61.3,42.1,27.17,West,260,2.3,5.8,50,0.00,,,0.00,WSDL version 420,2013-04-09 01:48:00,
2013-04-08 21:53:00,61.2,42.0,27.17,NW,304,1.8,5.8,49,0.00,,,0.00,WSDL version 420,2013-04-09 01:53:00,
2013-04-08 21:58:00,60.8,41.6,27.17,SSE,155,0.7,2.9,49,0.00,,,0.00,WSDL version 420,2013-04-09 01:58:00,
2013-04-08 22:03:00,60.6,41.7,27.17,NW,325,0.4,2.9,49,0.00,,,0.00,WSDL version 420,2013-04-09 02:03:00,
2013-04-08 22:08:00,60.3,41.7,27.17,NW,304,1.5,3.6,50,0.00,,,0.00,WSDL version 420,2013-04-09 02:08:00,
2013-04-08 22:13:00,60.1,42.1,27.17,West,270,2.3,5.8,51,0.00,,,0.00,WSDL version 420,2013-04-09 02:13:00,
2013-04-08 22:18:00,60.1,41.7,27.20,WNW,287,0.6,5.8,50,0.00,,,0.00,WSDL version 420,2013-04-09 02:18:00,
2013-04-08 22:23:00,60.0,41.7,27.20,WNW,293,0.5,4.0,50,0.00,,,0.00,WSDL version 420,2013-04-09 02:23:00,
2013-04-08 22:28:00,59.4,40.9,27.20,WNW,288,0.9,3.4,51,0.00,,,0.00,WSDL version 420,2013-04-09 02:28:00,
2013-04-08 22:33:00,59.0,41.0,27.20,East,82,0.0,2.5,51,0.00,,,0.00,WSDL version 420,2013-04-09 02:33:00,
2013-04-08 22:38:00,58.9,41.1,27.20,NNW,340,0.7,2.7,52,0.00,,,0.00,WSDL version 420,2013-04-09 02:38:00,
2013-04-08 22:43:00,58.8,41.4,27.20,NW,323,0.7,3.4,53,0.00,,,0.00,WSDL version 420,2013-04-09 02:43:00,
2013-04-08 22:48:00,59.1,42.3,27.20,West,270,3.5,5.6,53,0.00,,,0.00,WSDL version 420,2013-04-09 02:48:00,
2013-04-08 22:53:00,59.3,42.4,27.20,WSW,239,2.9,5.6,54,0.00,,,0.00,WSDL version 420,2013-04-09 02:53:00,
2013-04-08 22:58:00,59.2,42.1,27.20,WNW,287,3.0,5.6,53,0.00,,,0.00,WSDL version 420,2013-04-09 02:58:00,
2013-04-08 23:03:00,59.6,42.7,27.17,WSW,245,3.7,6.3,53,0.00,,,0.00,WSDL version 420,2013-04-09 03:03:00,
2013-04-08 23:08:00,59.9,42.8,27.17,NW,304,2.1,6.3,53,0.00,,,0.00,WSDL version 420,2013-04-09 03:08:00,
2013-04-08 23:13:00,59.7,42.6,27.17,West,278,3.2,5.8,53,0.00,,,0.00,WSDL version 420,2013-04-09 03:13:00,
2013-04-08 23:20:00,60.1,43.2,27.20,West,267,5.8,10.1,54,0.00,,,0.00,WSDL version 420,2013-04-09 03:20:00,
2013-04-08 23:25:00,60.4,43.2,27.20,WNW,303,4.2,10.1,53,0.00,,,0.00,WSDL version 420,2013-04-09 03:25:00,
2013-04-08 23:30:00,60.7,43.3,27.20,WSW,256,4.3,8.5,52,0.00,,,0.00,WSDL version 420,2013-04-09 03:30:00,
2013-04-08 23:35:00,60.7,43.1,27.17,West,278,3.8,7.6,52,0.00,,,0.00,WSDL version 420,2013-04-09 03:35:00,
2013-04-08 23:40:00,60.7,43.1,27.17,WSW,250,4.4,7.6,52,0.00,,,0.00,WSDL version 420,2013-04-09 03:40:00,
2013-04-08 23:45:00,60.8,43.1,27.17,NW,304,3.5,8.5,52,0.00,,,0.00,WSDL version 420,2013-04-09 03:45:00,
2013-04-08 23:50:00,60.7,43.1,27.17,WSW,255,5.2,8.5,52,0.00,,,0.00,WSDL version 420,2013-04-09 03:50:00,
2013-04-08 23:55:00,60.7,43.0,27.17,West,278,2.0,8.5,52,0.00,,,0.00,WSDL version 420,2013-04-09 03:55:00,